| time (UTC) | temp F | wind direction | speed MPH | gust MPH | rain 1hr in | rain 24hr in | rain mn in | humidity % | barometer mb |
| 20260507010926 | 42 | 270 | 1.0 | 2.0 | 0.00 | 0.42 | 0.42 | 93 | 1009.5 |
| 20260507010422 | 42 | 270 | 1.0 | 2.0 | 0.00 | 0.42 | 0.42 | 93 | 1009.6 |
| 20260507010137 | 42 | 270 | 0.0 | 2.0 | 0.00 | 0.42 | 0.42 | 93 | 1009.5 |
| 20260507005414 | 42 | 270 | 1.0 | 2.0 | 0.00 | 0.42 | 0.42 | 93 | 1009.4 |
| 20260507004907 | 42 | 270 | 1.0 | 2.0 | 0.00 | 0.42 | 0.42 | 93 | 1009.5 |
| 20260507004400 | 42 | 270 | 1.0 | 3.0 | 0.00 | 0.42 | 0.42 | 93 | 1009.3 |
| 20260507003856 | 42 | 270 | 2.0 | 3.0 | 0.00 | 0.42 | 0.42 | 93 | 1009.3 |
| 20260507003356 | 42 | 270 | 2.0 | 4.0 | 0.00 | 0.42 | 0.42 | 93 | 1009.3 |
| 20260507002856 | 42 | 269 | 2.0 | 4.0 | 0.00 | 0.42 | 0.42 | 93 | 1009.0 |
| 20260507002354 | 42 | 268 | 3.0 | 6.0 | 0.00 | 0.42 | 0.42 | 93 | 1009.2 |
| 20260507002334 | 42 | 273 | 4.0 | 8.0 | 0.00 | 0.42 | 0.42 | 93 | 1009.2 |
| 20260507001338 | 42 | 267 | 4.0 | 8.0 | 0.00 | 0.42 | 0.42 | 93 | 1009.2 |
| 20260507000835 | 42 | 271 | 4.0 | 6.0 | 0.00 | 0.42 | 0.42 | 93 | 1009.2 |
| 20260507000331 | 42 | 276 | 4.0 | 6.0 | 0.00 | 0.42 | 0.42 | 93 | 1008.9 |
| 20260506235829 | 42 | 288 | 4.0 | 7.0 | 0.00 | 0.42 | 0.42 | 93 | 1009.0 |
| 20260506235324 | 42 | 266 | 5.0 | 8.0 | 0.00 | 0.42 | 0.42 | 93 | 1008.9 |
| 20260506234817 | 42 | 281 | 6.0 | 8.0 | 0.00 | 0.42 | 0.42 | 93 | 1009.1 |
| 20260506234317 | 42 | 265 | 6.0 | 8.0 | 0.00 | 0.42 | 0.42 | 93 | 1009.1 |
| 20260506233817 | 42 | 264 | 5.0 | 8.0 | 0.00 | 0.42 | 0.42 | 93 | 1008.7 |
| 20260506233318 | 42 | 272 | 4.0 | 8.0 | 0.00 | 0.43 | 0.42 | 93 | 1008.5 |
| 20260506232816 | 42 | 275 | 4.0 | 7.0 | 0.00 | 0.43 | 0.42 | 93 | 1008.5 |
| 20260506232315 | 42 | 263 | 4.0 | 6.0 | 0.00 | 0.43 | 0.42 | 93 | 1008.5 |
| 20260506232035 | 42 | 281 | 3.0 | 6.0 | 0.00 | 0.43 | 0.42 | 93 | 1008.4 |
| 20260506231310 | 42 | 271 | 3.0 | 6.0 | 0.00 | 0.43 | 0.42 | 93 | 1008.4 |
| 20260506230804 | 42 | 282 | 3.0 | 5.0 | 0.00 | 0.43 | 0.42 | 93 | 1008.4 |
| 20260506230303 | 42 | 286 | 4.0 | 8.0 | 0.00 | 0.43 | 0.42 | 93 | 1008.3 |
| 20260506225802 | 42 | 299 | 5.0 | 9.0 | 0.00 | 0.48 | 0.42 | 93 | 1008.2 |
| 20260506225301 | 43 | 290 | 5.0 | 9.0 | 0.00 | 0.56 | 0.42 | 93 | 1008.1 |
| 20260506224759 | 43 | 284 | 5.0 | 8.0 | 0.00 | 0.60 | 0.42 | 93 | 1008.1 |
| 20260506224259 | 43 | 279 | 6.0 | 11.0 | 0.00 | 0.61 | 0.42 | 93 | 1008.1 |
| 20260506223759 | 42 | 315 | 5.0 | 11.0 | 0.00 | 0.61 | 0.42 | 93 | 1008.0 |
| 20260506223259 | 43 | 293 | 4.0 | 10.0 | 0.00 | 0.61 | 0.42 | 93 | 1008.0 |
| 20260506223021 | 43 | 339 | 5.0 | 9.0 | 0.00 | 0.61 | 0.42 | 93 | 1008.1 |
| 20260506222300 | 43 | 317 | 6.0 | 11.0 | 0.00 | 0.61 | 0.42 | 93 | 1008.2 |
| 20260506221757 | 43 | 306 | 5.0 | 11.0 | 0.00 | 0.61 | 0.42 | 93 | 1008.2 |
| 20260506221256 | 43 | 291 | 5.0 | 9.0 | 0.00 | 0.61 | 0.42 | 93 | 1008.3 |
| 20260506220754 | 43 | 287 | 4.0 | 10.0 | 0.00 | 0.61 | 0.42 | 93 | 1008.5 |
| 20260506220253 | 43 | 319 | 4.0 | 10.0 | 0.00 | 0.61 | 0.42 | 93 | 1008.4 |
| 20260506215751 | 43 | 338 | 4.0 | 8.0 | 0.00 | 0.61 | 0.42 | 93 | 1007.9 |
| 20260506215251 | 43 | 318 | 4.0 | 9.0 | 0.00 | 0.61 | 0.42 | 93 | 1008.1 |
| 20260506214751 | 43 | 284 | 4.0 | 9.0 | 0.00 | 0.61 | 0.42 | 93 | 1008.0 |
| 20260506214253 | 43 | 276 | 4.0 | 11.0 | 0.00 | 0.61 | 0.42 | 93 | 1008.1 |
| 20260506213749 | 43 | 290 | 4.0 | 11.0 | 0.00 | 0.61 | 0.42 | 93 | 1008.1 |
| 20260506213249 | 43 | 309 | 4.0 | 9.0 | 0.00 | 0.61 | 0.42 | 94 | 1007.9 |
| 20260506212750 | 43 | 322 | 4.0 | 11.0 | 0.00 | 0.61 | 0.42 | 93 | 1007.9 |
| 20260506212731 | 43 | 327 | 5.0 | 14.0 | 0.00 | 0.61 | 0.42 | 93 | 1007.8 |
| 20260506211747 | 42 | 320 | 5.0 | 14.0 | 0.00 | 0.61 | 0.42 | 93 | 1007.7 |
| 20260506211514 | 43 | 305 | 5.0 | 11.0 | 0.00 | 0.61 | 0.42 | 93 | 1007.8 |
| 20260506210742 | 42 | 317 | 6.0 | 14.0 | 0.00 | 0.61 | 0.42 | 93 | 1007.8 |
| 20260506210242 | 42 | 329 | 6.0 | 14.0 | 0.00 | 0.61 | 0.42 | 93 | 1007.7 |
| 20260506205742 | 43 | 331 | 6.0 | 14.0 | 0.00 | 0.61 | 0.42 | 93 | 1007.5 |
| 20260506205242 | 43 | 318 | 7.0 | 13.0 | 0.00 | 0.61 | 0.42 | 93 | 1007.4 |
| 20260506204738 | 43 | 325 | 7.0 | 12.0 | 0.00 | 0.61 | 0.42 | 93 | 1007.2 |
| 20260506204238 | 43 | 330 | 6.0 | 12.0 | 0.00 | 0.61 | 0.42 | 93 | 1007.2 |
| 20260506203736 | 43 | 311 | 7.0 | 15.0 | 0.00 | 0.61 | 0.42 | 93 | 1006.9 |
| 20260506203458 | 43 | 319 | 7.0 | 15.0 | 0.00 | 0.61 | 0.42 | 93 | 1006.9 |
| 20260506202738 | 43 | 321 | 7.0 | 13.0 | 0.00 | 0.61 | 0.42 | 93 | 1006.9 |
| 20260506202236 | 43 | 0 | 7.0 | 14.0 | 0.00 | 0.61 | 0.42 | 93 | 1006.8 |
| 20260506201737 | 43 | 339 | 8.0 | 15.0 | 0.01 | 0.61 | 0.42 | 93 | 1006.8 |
| 20260506201238 | 43 | 297 | 10.0 | 19.0 | 0.01 | 0.61 | 0.42 | 93 | 1006.8 |
| 20260506200741 | 43 | 284 | 9.0 | 19.0 | 0.01 | 0.61 | 0.42 | 93 | 1006.7 |
| 20260506200237 | 44 | 299 | 6.0 | 16.0 | 0.01 | 0.61 | 0.42 | 93 | 1006.6 |
| 20260506195736 | 44 | 327 | 5.0 | 11.0 | 0.01 | 0.61 | 0.42 | 93 | 1006.4 |
| 20260506195232 | 44 | 291 | 6.0 | 12.0 | 0.01 | 0.61 | 0.42 | 93 | 1006.4 |
| 20260506194733 | 44 | 322 | 7.0 | 12.0 | 0.01 | 0.61 | 0.42 | 93 | 1006.4 |
| 20260506194234 | 44 | 333 | 8.0 | 14.0 | 0.01 | 0.61 | 0.42 | 93 | 1006.4 |
| 20260506193734 | 44 | 302 | 6.0 | 14.0 | 0.01 | 0.61 | 0.42 | 93 | 1006.4 |
| 20260506193230 | 45 | 319 | 4.0 | 9.0 | 0.01 | 0.61 | 0.42 | 93 | 1006.4 |
| 20260506192728 | 45 | 341 | 4.0 | 9.0 | 0.02 | 0.61 | 0.42 | 93 | 1006.4 |
| 20260506192226 | 45 | 333 | 4.0 | 11.0 | 0.02 | 0.61 | 0.42 | 93 | 1006.4 |
| 20260506191721 | 45 | 331 | 4.0 | 12.0 | 0.01 | 0.60 | 0.41 | 93 | 1006.6 |
| 20260506191220 | 45 | 338 | 5.0 | 14.0 | 0.01 | 0.60 | 0.41 | 93 | 1006.6 |
| 20260506190717 | 44 | 329 | 7.0 | 14.0 | 0.02 | 0.60 | 0.41 | 93 | 1006.3 |
| 20260506190216 | 44 | 292 | 6.0 | 13.0 | 0.02 | 0.60 | 0.41 | 93 | 1006.3 |
| 20260506185711 | 44 | 290 | 7.0 | 15.0 | 0.02 | 0.60 | 0.41 | 93 | 1006.1 |
| 20260506185210 | 44 | 299 | 7.0 | 15.0 | 0.02 | 0.61 | 0.41 | 93 | 1006.2 |
| 20260506184707 | 45 | 288 | 6.0 | 13.0 | 0.02 | 0.61 | 0.41 | 93 | 1006.1 |
| 20260506184207 | 45 | 325 | 5.0 | 13.0 | 0.02 | 0.62 | 0.41 | 93 | 1006.0 |
| 20260506184151 | 45 | 327 | 5.0 | 12.0 | 0.02 | 0.64 | 0.41 | 93 | 1006.1 |
| 20260506183155 | 45 | 329 | 5.0 | 12.0 | 0.02 | 0.64 | 0.41 | 93 | 1005.9 |
| 20260506182652 | 45 | 289 | 6.0 | 11.0 | 0.02 | 0.63 | 0.40 | 93 | 1005.8 |
| 20260506182420 | 45 | 339 | 7.0 | 12.0 | 0.02 | 0.63 | 0.40 | 93 | 1005.7 |
| 20260506181641 | 45 | 289 | 8.0 | 12.0 | 0.02 | 0.63 | 0.40 | 93 | 1005.8 |
| 20260506181139 | 45 | 288 | 7.0 | 12.0 | 0.02 | 0.63 | 0.40 | 93 | 1005.8 |
| 20260506180638 | 45 | 293 | 5.0 | 12.0 | 0.01 | 0.62 | 0.39 | 93 | 1005.8 |
| 20260506180406 | 46 | 329 | 4.0 | 8.0 | 0.01 | 0.62 | 0.39 | 93 | 1005.8 |
| 20260506175903 | 46 | 322 | 5.0 | 8.0 | 0.01 | 0.62 | 0.39 | 93 | 1005.6 |
| 20260506175357 | 46 | 350 | 4.0 | 8.0 | 0.01 | 0.62 | 0.39 | 93 | 1005.6 |
| 20260506174622 | 46 | 313 | 3.0 | 9.0 | 0.01 | 0.62 | 0.39 | 93 | 1005.5 |
| 20260506174120 | 45 | 321 | 4.0 | 9.0 | 0.01 | 0.62 | 0.39 | 93 | 1005.5 |
| 20260506173616 | 46 | 283 | 3.0 | 6.0 | 0.01 | 0.62 | 0.39 | 93 | 1005.5 |
| 20260506173117 | 46 | 327 | 3.0 | 8.0 | 0.01 | 0.62 | 0.39 | 93 | 1005.3 |
| 20260506172619 | 46 | 311 | 3.0 | 8.0 | 0.01 | 0.61 | 0.38 | 93 | 1005.3 |
| 20260506172113 | 46 | 291 | 2.0 | 7.0 | 0.01 | 0.61 | 0.38 | 93 | 1005.4 |
| 20260506171609 | 46 | 346 | 3.0 | 8.0 | 0.01 | 0.61 | 0.38 | 93 | 1005.3 |
| 20260506171105 | 45 | 316 | 3.0 | 8.0 | 0.01 | 0.61 | 0.38 | 93 | 1005.4 |
| 20260506170604 | 45 | 344 | 4.0 | 8.0 | 0.01 | 0.61 | 0.38 | 93 | 1005.4 |
| 20260506170106 | 45 | 333 | 4.0 | 9.0 | 0.01 | 0.61 | 0.38 | 93 | 1005.4 |
| 20260506165606 | 45 | 308 | 4.0 | 11.0 | 0.01 | 0.61 | 0.38 | 93 | 1005.4 |
| 20260506165323 | 45 | 296 | 3.0 | 11.0 | 0.01 | 0.61 | 0.38 | 93 | 1005.1 |
| 20260506164603 | 45 | 10 | 3.0 | 8.0 | 0.01 | 0.61 | 0.38 | 93 | 1005.1 |
| 20260506164059 | 45 | 315 | 2.0 | 8.0 | 0.01 | 0.61 | 0.38 | 93 | 1005.1 |
| 20260506163558 | 45 | 326 | 1.0 | 4.0 | 0.02 | 0.61 | 0.38 | 93 | 1005.2 |
| 20260506163546 | 45 | 343 | 2.0 | 6.0 | 0.02 | 0.61 | 0.38 | 93 | 1005.3 |
| 20260506162551 | 45 | 305 | 4.0 | 8.0 | 0.01 | 0.60 | 0.37 | 93 | 1005.2 |
| 20260506162053 | 45 | 345 | 4.0 | 8.0 | 0.01 | 0.60 | 0.37 | 93 | 1005.1 |
| 20260506161552 | 45 | 355 | 4.0 | 8.0 | 0.01 | 0.60 | 0.37 | 93 | 1005.1 |
| 20260506161050 | 44 | 344 | 4.0 | 8.0 | 0.01 | 0.60 | 0.37 | 93 | 1004.9 |
| 20260506160550 | 45 | 336 | 2.0 | 8.0 | 0.02 | 0.60 | 0.37 | 93 | 1004.9 |
| 20260506160051 | 45 | 342 | 3.0 | 8.0 | 0.02 | 0.60 | 0.37 | 93 | 1004.9 |
| 20260506155809 | 44 | 313 | 4.0 | 8.0 | 0.02 | 0.60 | 0.37 | 93 | 1004.8 |
| 20260506155050 | 44 | 328 | 4.0 | 8.0 | 0.02 | 0.60 | 0.37 | 93 | 1004.8 |
| 20260506154550 | 44 | 355 | 3.0 | 8.0 | 0.02 | 0.60 | 0.37 | 93 | 1005.0 |
| 20260506154049 | 44 | 351 | 3.0 | 6.0 | 0.02 | 0.60 | 0.37 | 93 | 1005.0 |
| 20260506153545 | 44 | 349 | 2.0 | 5.0 | 0.01 | 0.59 | 0.36 | 93 | 1004.9 |
| 20260506153047 | 44 | 327 | 2.0 | 5.0 | 0.01 | 0.59 | 0.36 | 93 | 1004.8 |
| 20260506152547 | 44 | 317 | 2.0 | 5.0 | 0.02 | 0.59 | 0.36 | 93 | 1004.8 |
| 20260506152045 | 44 | 340 | 2.0 | 5.0 | 0.02 | 0.59 | 0.36 | 93 | 1004.7 |
| 20260506151545 | 44 | 5 | 3.0 | 5.0 | 0.02 | 0.59 | 0.36 | 93 | 1004.7 |
| 20260506151305 | 44 | 355 | 3.0 | 6.0 | 0.02 | 0.59 | 0.36 | 93 | 1004.8 |
| 20260506150542 | 44 | 306 | 2.0 | 6.0 | 0.02 | 0.58 | 0.36 | 93 | 1004.9 |
| 20260506150040 | 44 | 344 | 3.0 | 6.0 | 0.02 | 0.58 | 0.35 | 93 | 1004.8 |
| 20260506145758 | 44 | 0 | 3.0 | 6.0 | 0.02 | 0.58 | 0.35 | 93 | 1004.6 |
| 20260506145039 | 44 | 340 | 3.0 | 5.0 | 0.03 | 0.58 | 0.35 | 93 | 1004.5 |
| 20260506144538 | 44 | 0 | 4.0 | 8.0 | 0.03 | 0.58 | 0.35 | 93 | 1004.6 |
| 20260506144031 | 44 | 355 | 4.0 | 8.0 | 0.04 | 0.58 | 0.35 | 93 | 1004.7 |
| 20260506143757 | 44 | 355 | 3.0 | 8.0 | 0.04 | 0.58 | 0.35 | 92 | 1004.5 |
| 20260506143030 | 44 | 355 | 3.0 | 8.0 | 0.04 | 0.58 | 0.35 | 92 | 1004.3 |
| 20260506142530 | 45 | 34 | 3.0 | 7.0 | 0.03 | 0.57 | 0.35 | 93 | 1004.2 |
| 20260506142020 | 45 | 35 | 4.0 | 9.0 | 0.04 | 0.57 | 0.34 | 93 | 1004.3 |
| 20260506141518 | 44 | 32 | 4.0 | 9.0 | 0.05 | 0.57 | 0.34 | 93 | 1004.2 |
| 20260506141020 | 44 | 349 | 3.0 | 8.0 | 0.05 | 0.57 | 0.34 | 93 | 1004.4 |
| 20260506140519 | 44 | 5 | 3.0 | 8.0 | 0.04 | 0.56 | 0.33 | 92 | 1004.4 |
| 20260506140015 | 44 | 355 | 5.0 | 8.0 | 0.05 | 0.56 | 0.33 | 92 | 1004.3 |
| 20260506135516 | 44 | 0 | 4.0 | 8.0 | 0.06 | 0.56 | 0.33 | 92 | 1004.4 |
| 20260506135014 | 44 | 341 | 4.0 | 8.0 | 0.06 | 0.55 | 0.32 | 92 | 1004.3 |
| 20260506134515 | 45 | 27 | 5.0 | 8.0 | 0.07 | 0.55 | 0.32 | 92 | 1004.5 |
| 20260506134012 | 45 | 355 | 4.0 | 6.0 | 0.08 | 0.54 | 0.31 | 92 | 1004.6 |
| 20260506133510 | 45 | 345 | 3.0 | 5.0 | 0.09 | 0.54 | 0.31 | 92 | 1004.5 |
| 20260506133011 | 46 | 355 | 2.0 | 4.0 | 0.10 | 0.54 | 0.31 | 92 | 1004.6 |
| 20260506132459 | 46 | 323 | 0.0 | 3.0 | 0.10 | 0.54 | 0.31 | 92 | 1004.7 |
| 20260506131959 | 47 | 304 | 0.0 | 0.0 | 0.09 | 0.53 | 0.30 | 92 | 1004.7 |
| 20260506131717 | 47 | 303 | 0.0 | 2.0 | 0.09 | 0.52 | 0.29 | 92 | 1004.8 |
| 20260506130950 | 47 | 304 | 1.0 | 2.0 | 0.10 | 0.52 | 0.29 | 92 | 1004.8 |
| 20260506130450 | 47 | 307 | 1.0 | 3.0 | 0.11 | 0.52 | 0.29 | 92 | 1004.9 |
| 20260506125951 | 47 | 310 | 1.0 | 3.0 | 0.10 | 0.50 | 0.28 | 92 | 1004.9 |
| 20260506125453 | 47 | 9 | 1.0 | 2.0 | 0.10 | 0.50 | 0.27 | 92 | 1004.9 |
| 20260506124948 | 47 | 9 | 2.0 | 4.0 | 0.09 | 0.49 | 0.26 | 92 | 1004.8 |
| 20260506124712 | 47 | 9 | 4.0 | 12.0 | 0.08 | 0.48 | 0.25 | 92 | 1004.8 |
| 20260506123949 | 47 | 283 | 5.0 | 12.0 | 0.07 | 0.46 | 0.24 | 92 | 1004.8 |
| 20260506123449 | 47 | 65 | 3.0 | 8.0 | 0.07 | 0.45 | 0.22 | 92 | 1004.3 |
| 20260506122948 | 47 | 63 | 3.0 | 9.0 | 0.06 | 0.44 | 0.21 | 92 | 1004.5 |
| 20260506122713 | 47 | 49 | 3.0 | 9.0 | 0.07 | 0.44 | 0.21 | 92 | 1004.5 |
| 20260506121948 | 47 | 61 | 3.0 | 6.0 | 0.08 | 0.44 | 0.21 | 92 | 1004.4 |
| 20260506121450 | 47 | 15 | 3.0 | 8.0 | 0.07 | 0.43 | 0.20 | 92 | 1004.5 |
| 20260506121208 | 47 | 11 | 3.0 | 9.0 | 0.07 | 0.42 | 0.19 | 92 | 1004.4 |
| 20260506120446 | 47 | 327 | 3.0 | 9.0 | 0.07 | 0.41 | 0.18 | 92 | 1004.3 |
| 20260506115950 | 47 | 344 | 3.0 | 7.0 | 0.06 | 0.40 | 0.17 | 92 | 1004.5 |
| 20260506115444 | 47 | 328 | 5.0 | 13.0 | 0.07 | 0.40 | 0.17 | 92 | 1004.5 |
| 20260506114944 | 48 | 270 | 5.0 | 13.0 | 0.07 | 0.40 | 0.17 | 91 | 1004.5 |
| 20260506114652 | 49 | 261 | 1.0 | 8.0 | 0.07 | 0.39 | 0.16 | 92 | 1004.5 |
| 20260506114541 | 48 | 144 | 2.0 | 8.0 | 0.08 | 0.40 | 0.17 | 92 | 1004.4 |
| 20260506113445 | 49 | 112 | 0.0 | 3.0 | 0.06 | 0.38 | 0.16 | 92 | 1004.5 |
| 20260506112948 | 48 | 113 | 0.0 | 3.0 | 0.06 | 0.38 | 0.15 | 92 | 1004.4 |
| 20260506112443 | 48 | 42 | 0.0 | 0.0 | 0.06 | 0.37 | 0.14 | 92 | 1004.4 |
| 20260506111940 | 48 | 43 | 0.0 | 0.0 | 0.05 | 0.36 | 0.13 | 92 | 1004.6 |
| 20260506111442 | 48 | 42 | 0.0 | 1.0 | 0.05 | 0.36 | 0.13 | 92 | 1004.7 |
| 20260506110937 | 48 | 42 | 0.0 | 3.0 | 0.05 | 0.35 | 0.12 | 92 | 1004.7 |
| 20260506110436 | 48 | 42 | 1.0 | 4.0 | 0.04 | 0.34 | 0.11 | 92 | 1004.8 |
| 20260506105930 | 48 | 63 | 1.0 | 4.0 | 0.05 | 0.34 | 0.11 | 92 | 1004.7 |
| 20260506105430 | 48 | 65 | 2.0 | 8.0 | 0.05 | 0.33 | 0.10 | 92 | 1004.8 |
| 20260506104930 | 47 | 65 | 3.0 | 9.0 | 0.05 | 0.33 | 0.10 | 91 | 1004.7 |
| 20260506104431 | 47 | 80 | 3.0 | 9.0 | 0.04 | 0.32 | 0.09 | 92 | 1004.7 |
| 20260506103925 | 47 | 26 | 3.0 | 6.0 | 0.04 | 0.32 | 0.09 | 91 | 1004.6 |
| 20260506103426 | 47 | 247 | 3.0 | 9.0 | 0.05 | 0.32 | 0.09 | 91 | 1004.8 |
| 20260506102924 | 47 | 48 | 4.0 | 9.0 | 0.05 | 0.32 | 0.09 | 91 | 1004.5 |
| 20260506102424 | 47 | 15 | 4.0 | 9.0 | 0.04 | 0.31 | 0.09 | 91 | 1004.7 |
| 20260506101919 | 47 | 69 | 3.0 | 9.0 | 0.05 | 0.31 | 0.08 | 91 | 1004.8 |
| 20260506101418 | 47 | 69 | 3.0 | 9.0 | 0.05 | 0.31 | 0.08 | 91 | 1004.7 |
| 20260506100919 | 47 | 61 | 3.0 | 8.0 | 0.04 | 0.30 | 0.07 | 91 | 1004.8 |
| 20260506100422 | 47 | 67 | 4.0 | 7.0 | 0.05 | 0.30 | 0.07 | 91 | 1004.8 |
| 20260506095915 | 47 | 85 | 4.0 | 9.0 | 0.04 | 0.29 | 0.06 | 91 | 1004.8 |
| 20260506095414 | 47 | 82 | 5.0 | 10.0 | 0.04 | 0.28 | 0.05 | 91 | 1005.0 |
| 20260506094912 | 47 | 67 | 5.0 | 10.0 | 0.04 | 0.28 | 0.05 | 91 | 1004.7 |
| 20260506094411 | 47 | 61 | 4.0 | 9.0 | 0.04 | 0.28 | 0.05 | 91 | 1004.8 |
| 20260506093910 | 47 | 44 | 3.0 | 9.0 | 0.04 | 0.28 | 0.05 | 91 | 1004.8 |
| 20260506093625 | 47 | 53 | 3.0 | 7.0 | 0.04 | 0.27 | 0.04 | 91 | 1004.9 |
| 20260506093138 | 47 | 21 | 4.0 | 8.0 | 0.04 | 0.27 | 0.04 | 91 | 1005.1 |
| 20260506092401 | 47 | 346 | 5.0 | 10.0 | 0.04 | 0.27 | 0.04 | 91 | 1005.2 |
| 20260506092119 | 47 | 299 | 5.0 | 10.0 | 0.03 | 0.26 | 0.03 | 91 | 1005.5 |
| 20260506091357 | 47 | 0 | 3.0 | 10.0 | 0.03 | 0.26 | 0.03 | 91 | 1005.4 |
| 20260506090857 | 47 | 348 | 2.0 | 5.0 | 0.03 | 0.26 | 0.03 | 90 | 1005.3 |
| 20260506090352 | 47 | 336 | 2.0 | 5.0 | 0.02 | 0.25 | 0.02 | 90 | 1005.2 |
| 20260506085853 | 47 | 5 | 1.0 | 3.0 | 0.02 | 0.25 | 0.02 | 90 | 1005.1 |
| 20260506085354 | 47 | 5 | 1.0 | 3.0 | 0.01 | 0.24 | 0.01 | 90 | 1005.2 |
| 20260506084853 | 47 | 24 | 1.0 | 4.0 | 0.01 | 0.24 | 0.01 | 90 | 1005.0 |
| 20260506084353 | 47 | 22 | 2.0 | 5.0 | 0.01 | 0.24 | 0.01 | 90 | 1005.1 |
| 20260506084324 | 47 | 5 | 3.0 | 7.0 | 0.01 | 0.24 | 0.01 | 90 | 1005.2 |
| 20260506083345 | 47 | 13 | 4.0 | 8.0 | 0.00 | 0.23 | 0.00 | 90 | 1004.9 |
| 20260506082845 | 47 | 274 | 5.0 | 11.0 | 0.00 | 0.23 | 0.00 | 90 | 1005.0 |
| 20260506082345 | 48 | 26 | 6.0 | 11.0 | 0.00 | 0.23 | 0.00 | 89 | 1005.1 |
| 20260506081844 | 48 | 103 | 4.0 | 10.0 | 0.00 | 0.23 | 0.00 | 90 | 1004.7 |
| 20260506081345 | 48 | 290 | 2.0 | 7.0 | 0.00 | 0.23 | 0.00 | 90 | 1004.9 |
| 20260506080844 | 48 | 174 | 1.0 | 4.0 | 0.00 | 0.23 | 0.00 | 90 | 1004.9 |
| 20260506080344 | 48 | 79 | 1.0 | 4.0 | 0.00 | 0.23 | 0.00 | 90 | 1004.8 |
| 20260506073329 | 48 | 65 | 1.0 | 4.0 | 0.00 | 0.23 | 0.00 | 90 | 1005.1 |
| 20260506072808 | 47 | 74 | 1.0 | 4.0 | 0.00 | 0.23 | 0.00 | 90 | 1005.0 |
| 20260506072259 | 47 | 88 | 1.0 | 3.0 | 0.00 | 0.23 | 0.00 | 90 | 1005.0 |
| 20260506071755 | 47 | 90 | 1.0 | 4.0 | 0.00 | 0.23 | 0.00 | 90 | 1005.0 |
| 20260506071253 | 47 | 88 | 2.0 | 7.0 | 0.00 | 0.23 | 0.00 | 90 | 1005.0 |
| 20260506070752 | 47 | 82 | 2.0 | 7.0 | 0.00 | 0.23 | 0.00 | 90 | 1005.0 |
| 20260506070253 | 47 | 108 | 2.0 | 4.0 | 0.00 | 0.23 | 0.00 | 91 | 1005.1 |
| 20260506061735 | 46 | 22 | 3.0 | 5.0 | 0.00 | 0.23 | 0.00 | 90 | 1006.0 |
| 20260506061237 | 46 | 27 | 3.0 | 6.0 | 0.00 | 0.23 | 0.00 | 90 | 1006.1 |
| 20260506060732 | 46 | 0 | 3.0 | 6.0 | 0.00 | 0.23 | 0.00 | 90 | 1006.1 |
| 20260506060230 | 46 | 5 | 2.0 | 4.0 | 0.00 | 0.23 | 0.00 | 90 | 1006.2 |
| 20260506051214 | 46 | 349 | 2.0 | 4.0 | 0.00 | 0.23 | 0.00 | 89 | 1006.7 |
| 20260506050711 | 47 | 39 | 1.0 | 4.0 | 0.00 | 0.23 | 0.00 | 89 | 1006.8 |
| 20260506050209 | 47 | 86 | 2.0 | 6.0 | 0.00 | 0.23 | 0.00 | 89 | 1006.8 |
| 20260506044654 | 47 | 305 | 0.0 | 2.0 | 0.00 | 0.23 | 0.00 | 88 | 1006.8 |
| 20260506044153 | 47 | 305 | 1.0 | 4.0 | 0.00 | 0.23 | 0.00 | 88 | 1007.0 |
| 20260506043909 | 47 | 305 | 1.0 | 4.0 | 0.00 | 0.23 | 0.00 | 88 | 1007.0 |
| 20260506043143 | 47 | 64 | 2.0 | 7.0 | 0.00 | 0.23 | 0.00 | 87 | 1007.0 |
| 20260506042639 | 47 | 65 | 3.0 | 7.0 | 0.00 | 0.23 | 0.00 | 88 | 1006.8 |
| 20260506042135 | 47 | 63 | 3.0 | 7.0 | 0.00 | 0.23 | 0.00 | 87 | 1006.7 |
| 20260506041629 | 47 | 64 | 2.0 | 7.0 | 0.00 | 0.23 | 0.00 | 87 | 1006.8 |
| 20260506041124 | 47 | 74 | 2.0 | 7.0 | 0.00 | 0.23 | 0.00 | 87 | 1006.6 |
| 20260506040609 | 48 | 63 | 1.0 | 3.0 | 0.00 | 0.23 | 0.00 | 87 | 1006.6 |
| 20260506035556 | 48 | 59 | 3.0 | 8.0 | 0.00 | 0.23 | 0.23 | 86 | 1006.9 |
| 20260506035052 | 48 | 70 | 4.0 | 6.0 | 0.00 | 0.23 | 0.23 | 86 | 1006.9 |
| 20260506034553 | 49 | 78 | 3.0 | 6.0 | 0.00 | 0.23 | 0.23 | 86 | 1007.0 |
| 20260506034051 | 49 | 29 | 2.0 | 6.0 | 0.00 | 0.23 | 0.23 | 86 | 1007.0 |
| 20260506033551 | 49 | 37 | 2.0 | 5.0 | 0.00 | 0.23 | 0.23 | 86 | 1007.3 |
| 20260506033050 | 49 | 15 | 2.0 | 5.0 | 0.00 | 0.23 | 0.23 | 86 | 1007.2 |
| 20260506032550 | 49 | 57 | 3.0 | 8.0 | 0.00 | 0.23 | 0.23 | 86 | 1007.5 |
| 20260506032053 | 49 | 68 | 4.0 | 8.0 | 0.00 | 0.23 | 0.23 | 86 | 1007.2 |
| 20260506031548 | 49 | 69 | 3.0 | 8.0 | 0.00 | 0.23 | 0.23 | 85 | 1007.2 |
| 20260506031046 | 49 | 70 | 3.0 | 7.0 | 0.00 | 0.23 | 0.23 | 85 | 1007.4 |
| 20260506030816 | 49 | 0 | 3.0 | 6.0 | 0.00 | 0.23 | 0.23 | 85 | 1007.8 |
| 20260506030045 | 50 | 340 | 2.0 | 5.0 | 0.00 | 0.23 | 0.23 | 85 | 1007.6 |
| 20260506025546 | 50 | 5 | 3.0 | 8.0 | 0.00 | 0.23 | 0.23 | 85 | 1007.8 |
| 20260506025047 | 50 | 57 | 5.0 | 11.0 | 0.00 | 0.23 | 0.23 | 85 | 1007.7 |
| 20260506024546 | 50 | 63 | 4.0 | 11.0 | 0.00 | 0.23 | 0.23 | 85 | 1007.6 |
| 20260506024046 | 50 | 59 | 2.0 | 8.0 | 0.00 | 0.23 | 0.23 | 85 | 1007.6 |
| 20260506023547 | 50 | 69 | 1.0 | 5.0 | 0.00 | 0.23 | 0.23 | 85 | 1007.7 |
| 20260506023041 | 50 | 62 | 2.0 | 4.0 | 0.00 | 0.23 | 0.23 | 85 | 1007.8 |
| 20260506022539 | 50 | 74 | 2.0 | 5.0 | 0.00 | 0.23 | 0.23 | 85 | 1008.0 |
| 20260506022305 | 50 | 60 | 1.0 | 5.0 | 0.00 | 0.23 | 0.23 | 85 | 1008.1 |
| 20260506021537 | 50 | 44 | 1.0 | 4.0 | 0.00 | 0.23 | 0.23 | 85 | 1008.0 |
| 20260506021032 | 50 | 54 | 1.0 | 4.0 | 0.00 | 0.23 | 0.23 | 85 | 1007.8 |
| 20260506020532 | 50 | 67 | 1.0 | 4.0 | 0.00 | 0.23 | 0.23 | 85 | 1007.7 |
| 20260506020031 | 50 | 61 | 2.0 | 7.0 | 0.00 | 0.23 | 0.23 | 85 | 1007.7 |
| 20260506015532 | 50 | 17 | 3.0 | 7.0 | 0.00 | 0.23 | 0.23 | 85 | 1007.3 |
| 20260506015032 | 50 | 15 | 4.0 | 9.0 | 0.00 | 0.23 | 0.23 | 85 | 1007.3 |
| 20260506014528 | 51 | 24 | 5.0 | 9.0 | 0.00 | 0.23 | 0.23 | 85 | 1007.1 |
| 20260506014026 | 51 | 5 | 4.0 | 9.0 | 0.00 | 0.23 | 0.23 | 85 | 1006.7 |
| 20260506013519 | 51 | 26 | 4.0 | 11.0 | 0.00 | 0.23 | 0.23 | 85 | 1007.2 |
| 20260506013019 | 51 | 9 | 5.0 | 11.0 | 0.00 | 0.23 | 0.23 | 85 | 1007.1 |
| 20260506012736 | 51 | 347 | 5.0 | 10.0 | 0.00 | 0.23 | 0.23 | 85 | 1007.1 |
| 20260506012017 | 51 | 349 | 4.0 | 8.0 | 0.00 | 0.23 | 0.23 | 85 | 1006.9 |
| 20260506011516 | 52 | 329 | 3.0 | 9.0 | 0.00 | 0.23 | 0.23 | 85 | 1007.0 |
| 20260506011013 | 52 | 80 | 4.0 | 9.0 | 0.00 | 0.23 | 0.23 | 86 | 1006.8 |